Theta_e
284 285 285 284 283 284 282 283 279 282 283 286 288 288 289 293 295 295 295 296 296 295 295 294 292 294 297 297 296 297 297 296 295 292 291 290 289 289 289 288 288 287 286 285
282 286 285 283 285 285 285 285 284 284 283 290 290 291 292 293 293 293 293 294 295 296 296 295 295 294 296 298 297 298 298 296 294 291 290 289 289 289 288 287 286 286 284 285
278 284 284 279 283 284 284 285 284 280 285 288 289 291 291 292 292 291 292 293 294 295 295 296 296 296 295 297 297 297 296 295 293 292 291 290 289 289 287 285 285 284 284 284
279 281 273 282 287 286 284 285 286 287 288 289 290 291 293 294 292 292 292 293 295 296 296 296 297 296 295 295 296 296 295 295 293 292 291 290 289 288 286 285 284 284 283 284
277 277 280 281 284 283 282 282 287 287 290 291 292 290 289 294 294 293 293 295 295 297 298 297 298 297 295 294 294 294 294 293 293 292 290 289 288 287 286 285 284 284 284 283
279 274 271 280 288 292 291 279 289 290 289 288 288 283 286 290 293 293 294 295 295 296 298 297 295 295 292 291 291 291 292 293 292 292 290 289 288 286 286 286 285 285 283 282
278 276 276 286 289 293 279 281 290 291 291 289 286 289 289 291 292 293 294 295 296 296 296 296 293 292 285 284 287 287 291 293 293 291 290 290 288 287 286 285 285 284 283 282
278 274 272 287 288 283 287 292 292 292 292 291 291 292 291 292 293 293 294 296 297 296 295 297 292 288 283 285 284 287 289 291 291 290 290 289 288 286 286 285 284 283 283 282
279 276 285 289 287 290 292 292 292 291 292 291 290 289 291 292 293 293 294 294 297 296 293 293 291 289 285 284 285 286 287 288 288 287 286 287 286 285 284 284 284 283 282 281
280 283 286 288 291 293 294 293 295 294 294 291 288 289 289 292 292 293 293 293 297 296 295 292 291 289 288 289 287 286 287 287 287 286 286 286 286 285 285 284 283 283 282 281
281 283 285 288 290 291 293 295 295 296 295 293 290 289 289 290 292 293 294 294 294 295 295 295 290 287 289 289 288 287 289 288 288 288 286 285 285 285 285 285 285 283 283 282
276 283 283 284 289 290 290 289 290 290 292 292 291 288 289 289 290 292 291 292 293 293 292 292 290 289 290 290 289 286 288 287 288 287 286 285 284 284 286 285 286 286 285 282
282 286 286 287 290 291 289 289 291 291 291 291 291 289 289 290 291 290 290 291 291 290 290 288 287 285 288 288 288 288 287 287 287 286 286 285 285 284 283 284 285 286 285 284
288 287 284 286 285 289 290 291 292 292 292 292 291 291 291 290 289 288 287 288 290 290 287 284 285 282 285 286 287 286 286 286 286 286 286 285 285 285 284 282 282 283 284 284
287 288 287 289 289 289 292 293 291 289 290 292 293 291 290 289 288 285 285 286 287 286 286 288 287 285 286 287 286 286 286 285 286 285 285 285 285 285 284 283 282 281 280 282
288 288 289 289 291 291 292 292 290 289 290 291 291 291 290 287 285 285 285 286 285 284 284 283 284 285 285 286 286 286 286 284 284 285 284 284 284 283 283 282 281 279 279 281
285 285 286 286 286 286 287 287 288 289 289 288 288 288 286 284 283 283 283 284 283 282 282 283 283 285 285 285 286 285 285 284 284 284 284 284 284 283 283 282 281 280 280 279
288 288 288 287 286 284 286 287 287 288 288 289 286 284 283 283 282 282 281 282 281 281 281 282 282 283 284 285 286 285 286 284 284 284 284 283 283 283 282 282 281 280 278 278
285 285 285 284 284 284 285 285 285 286 285 285 284 284 284 283 282 281 281 281 281 280 280 281 281 281 282 283 285 284 284 284 284 284 283 283 282 282 282 282 281 281 281 280
283 283 283 283 283 282 282 284 283 284 284 284 284 284 282 281 280 279 279 278 279 280 281 280 281 281 281 282 283 284 284 282 282 281 281 281 281 280 280 280 280 280 281 281
283 282 281 279 280 281 281 281 281 282 282 283 282 282 281 281 280 280 280 278 279 278 278 277 279 279 279 279 281 280 280 282 282 281 280 280 280 278 275 274 275 274 273 273
283 282 281 281 281 280 281 281 281 279 279 279 280 280 279 279 279 279 279 279 280 275 278 278 278 275 277 276 279 277 280 280 280 279 276 276 277 277 270 270 271 268 268 267
284 283 282 281 280 281 280 279 280 280 277 276 277 277 279 280 280 278 276 281 281 280 280 278 275 274 275 279 278 276 278 278 277 277 277 277 276 272 270 269 270 271 272 273
283 282 282 280 279 280 279 279 279 279 278 279 279 279 279 278 278 280 280 279 278 278 278 277 276 275 275 274 272 271 271 271 273 272 270 269 272 272 272 272 272 270 270 272
283 279 278 278 279 279 280 280 279 279 278 278 278 279 278 278 277 277 276 277 275 273 272 271 270 270 268 267 267 267 267 267 268 268 267 267 267 267 267 268 267 266 267 267
282 280 279 280 280 280 280 280 278 278 277 275 275 274 274 274 273 273 273 272 270 268 266 265 265 264 264 264 263 263 263 262 262 265 264 264 264 264 264 265 264 265 265 265
278 276 278 277 280 281 281 280 278 276 276 274 272 273 271 270 269 270 269 268 266 265 263 262 261 261 261 259 259 259 259 259 259 260 261 263 262 262 262 262 262 262 262 263
Wind_Speed
17 17 18 20 19 5 10 15 13 17 20 20 14 9 7 5 5 3 2 3 5 5 6 6 7 7 8 6 5 7 11 11 11 11 11 12 12 12 11 12 8 8 7 7
22 13 15 20 17 8 12 15 16 18 21 20 8 3 4 5 5 5 6 7 7 7 8 8 7 7 9 12 11 12 12 12 11 12 12 12 13 13 12 10 9 8 7 8
20 6 9 13 12 14 13 15 11 13 16 8 7 9 7 6 6 8 8 8 7 8 9 10 8 5 8 10 10 14 13 11 12 13 13 13 13 13 13 12 11 9 7 8
12 6 12 6 3 5 10 16 9 12 13 8 7 2 4 8 7 8 8 8 8 8 9 8 5 3 5 7 9 10 12 12 12 14 13 13 13 13 12 11 11 10 8 7
7 5 6 13 7 4 4 20 5 5 1 3 4 2 6 8 9 9 7 7 9 8 8 6 5 5 5 6 7 9 10 11 12 13 13 13 11 9 9 11 9 9 9 8
3 4 4 4 1 7 4 12 3 3 4 3 5 1 8 4 6 7 7 6 7 8 7 5 3 4 6 6 7 9 10 11 11 12 13 14 14 12 10 10 10 8 7 9
11 8 7 8 14 7 5 4 2 3 7 6 4 6 4 6 4 4 5 8 8 7 7 6 3 6 5 4 8 6 7 9 10 11 12 12 12 11 11 11 10 9 10 8
5 6 11 10 9 5 9 5 6 8 12 11 11 13 9 9 6 5 7 7 7 6 6 4 5 5 4 7 3 5 6 8 10 10 9 10 14 10 10 10 11 10 9 7
3 5 5 8 9 16 16 13 10 6 13 9 9 9 9 7 7 6 6 6 3 5 7 3 3 5 5 2 5 5 6 7 7 8 8 11 12 11 9 9 9 9 8 7
1 6 10 11 14 16 16 12 12 7 14 7 8 8 8 7 6 6 6 6 3 6 6 3 3 4 3 4 5 6 6 7 7 10 9 9 7 8 9 9 8 8 8 7
11 11 12 14 12 9 12 8 13 14 16 11 8 10 9 7 7 6 6 5 3 6 6 4 5 3 3 3 5 5 6 7 8 8 10 10 9 9 9 9 11 10 8 8
16 15 10 13 11 16 13 17 14 15 16 10 8 10 7 6 5 3 2 3 2 1 4 5 5 5 4 4 5 5 6 6 7 7 7 8 7 6 7 7 12 12 13 11
19 15 14 14 14 14 21 23 18 14 14 13 9 7 5 5 4 3 1 3 4 4 4 6 5 4 6 6 5 6 6 6 6 7 7 8 8 8 8 5 12 15 16 18
15 15 18 20 15 14 13 18 19 14 10 7 8 4 6 5 4 3 4 4 5 5 2 5 4 1 0 1 5 5 4 5 5 6 7 7 8 8 7 8 8 6 9 13
18 16 16 18 16 13 10 8 9 7 6 5 5 7 8 8 6 4 3 4 6 7 6 4 4 2 4 4 4 4 4 3 3 4 4 6 6 6 6 7 6 4 2 5
9 8 9 12 8 5 6 6 6 8 4 3 5 7 5 7 6 6 5 6 4 5 5 5 6 4 2 3 4 3 3 4 4 4 4 5 6 6 6 6 6 5 5 5
6 6 3 3 3 5 4 4 5 6 4 4 4 3 6 6 7 6 6 5 6 5 5 6 5 5 4 1 3 2 2 3 4 3 4 4 5 5 5 5 5 5 4 5
6 4 4 5 6 8 9 9 7 7 4 2 4 4 4 4 5 5 5 5 5 6 6 5 5 5 4 4 1 1 2 2 3 3 3 3 4 4 4 4 4 4 3 4
7 7 7 7 6 6 7 8 8 5 5 2 3 5 5 5 6 5 4 4 6 5 3 3 5 4 4 4 3 3 3 3 3 3 3 4 3 3 3 3 3 4 4 4
6 6 6 7 7 6 6 5 5 4 3 2 4 6 7 6 7 7 7 5 2 2 3 3 3 4 3 4 4 3 3 3 3 3 2 2 2 2 2 3 3 3 4 4
3 3 5 5 5 5 5 4 3 2 3 4 6 6 8 7 5 4 5 5 4 4 5 6 4 3 3 3 3 3 3 4 3 3 2 2 2 1 1 2 2 2 2 2
3 3 4 5 4 4 3 3 3 3 5 5 6 8 9 7 7 8 7 5 3 5 4 4 3 4 4 5 4 4 5 5 3 3 3 2 1 1 2 2 2 3 3 3
4 4 4 4 4 3 2 2 2 3 5 5 5 5 5 4 3 4 5 5 4 6 5 4 5 6 7 6 5 6 6 6 5 4 4 3 2 2 1 2 2 2 2 2
4 4 4 2 3 3 2 1 4 5 5 6 7 6 5 5 5 5 6 6 8 9 9 9 11 14 12 8 8 7 7 7 6 6 6 7 6 5 5 4 4 3 3 3
5 3 3 4 4 3 4 4 5 5 7 8 8 7 9 7 4 3 5 6 11 9 8 13 14 14 8 8 7 7 7 7 7 6 6 6 6 6 6 6 6 5 4 5
3 3 3 5 4 4 4 4 4 4 5 6 6 5 6 5 5 6 7 9 9 10 8 8 8 8 8 8 7 8 7 7 7 7 7 6 6 6 6 6 6 6 5 5
2 2 1 1 1 4 5 6 6 5 5 6 7 5 5 5 6 7 9 8 8 8 7 7 7 8 7 7 7 7 7 6 8 6 6 6 6 6 6 6 6 6 6 7
Wind_Direction
263 273 275 270 272 250 243 251 250 268 268 269 266 253 244 208 209 200 224 268 291 296 288 280 241 235 224 216 202 194 180 178 185 163 157 152 147 154 155 157 169 147 159 142
276 275 267 272 275 269 264 263 258 253 261 263 259 159 185 206 221 237 262 272 284 296 297 283 272 257 227 213 193 185 191 191 172 153 157 159 160 159 155 143 151 165 153 161
269 276 298 268 244 248 258 263 257 268 264 264 227 210 207 216 233 236 243 251 259 262 267 270 270 272 239 221 172 176 178 175 171 166 170 170 162 158 153 160 154 152 143 154
268 241 236 273 235 245 241 260 264 255 265 237 232 237 208 222 217 238 243 252 253 254 254 244 233 262 211 165 175 180 181 178 175 168 173 165 169 162 152 153 155 144 150 147
251 229 282 289 266 236 284 286 301 234 210 301 311 338 285 226 219 242 252 253 254 256 266 267 288 260 166 154 166 175 177 173 173 172 163 160 151 149 153 150 146 153 155 150
223 257 257 241 343 355 18 276 294 266 229 218 154 204 255 243 223 257 270 263 276 279 277 280 288 177 147 156 162 175 175 175 169 170 163 161 154 153 160 151 151 148 150 175
235 249 269 355 337 310 256 289 264 264 292 297 254 210 244 294 270 253 268 292 296 288 261 257 164 167 155 156 195 172 149 158 161 163 164 161 154 154 160 162 158 163 169 165
219 239 255 4 347 309 335 259 267 269 273 260 253 265 260 239 241 270 292 298 317 333 282 263 169 156 152 197 160 149 147 152 157 159 157 154 154 152 155 162 167 171 169 171
270 250 232 205 207 253 262 268 277 260 276 261 258 246 228 231 236 253 274 297 15 342 318 280 190 169 184 231 157 151 145 147 144 142 145 151 148 156 157 164 172 175 176 176
335 259 251 267 253 255 263 255 259 251 269 257 254 248 250 244 243 249 272 267 161 59 342 280 242 193 201 152 174 159 155 152 145 146 144 150 153 161 164 173 178 180 180 179
260 280 276 274 263 266 290 244 261 269 263 264 250 257 223 238 244 248 256 279 205 213 183 255 179 162 116 140 164 163 155 157 162 161 159 158 171 176 181 187 183 181 185 177
258 269 263 265 276 301 293 294 289 280 279 254 230 240 225 237 229 203 249 323 336 237 214 166 173 155 172 170 168 154 156 159 167 162 163 166 167 166 185 178 186 193 179 179
254 268 268 270 274 279 284 284 281 274 258 261 259 217 207 180 175 155 124 17 351 304 207 174 169 179 174 171 164 177 172 166 162 164 166 168 171 176 178 180 190 198 197 196
273 281 287 283 279 275 273 279 281 263 254 228 223 185 155 146 132 136 52 16 359 12 97 143 147 123 30 311 148 145 134 155 170 172 174 174 178 182 174 179 183 188 215 209
253 255 248 260 274 267 271 277 295 295 255 229 172 161 155 162 158 114 41 23 57 44 16 80 132 163 163 164 155 162 152 153 162 164 167 170 171 176 174 177 182 173 132 185
255 257 265 267 287 339 332 321 309 299 276 282 197 173 158 120 117 108 73 42 74 48 18 41 52 23 86 159 158 143 153 150 166 167 164 169 173 175 175 181 175 174 181 185
261 282 334 290 332 325 320 326 329 335 359 49 20 59 99 107 122 104 87 71 72 63 47 43 41 28 41 90 161 142 153 160 172 163 173 171 170 172 171 169 170 172 181 169
8 3 345 320 316 302 301 302 317 332 341 46 70 70 112 135 121 114 104 99 88 67 44 31 31 33 35 33 58 116 203 162 164 167 149 151 157 153 154 157 159 164 168 172
345 338 334 316 309 305 304 300 296 307 304 277 163 151 134 121 119 110 91 84 106 92 45 57 49 36 43 31 70 71 71 96 110 113 124 134 134 137 147 159 170 181 182 183
335 331 325 324 333 311 305 302 300 299 311 155 126 121 111 93 96 99 97 92 54 46 54 51 70 75 61 53 52 54 80 81 81 80 77 100 122 142 155 178 177 189 195 202
289 317 308 296 302 316 312 308 314 343 64 80 100 100 105 102 100 104 101 86 39 35 44 44 60 53 62 87 66 47 65 63 62 70 76 71 57 29 228 219 204 199 224 219
239 233 261 281 285 289 318 340 34 32 56 68 78 100 103 96 94 81 60 85 80 43 48 41 37 44 71 69 66 63 60 62 56 51 52 52 41 348 256 232 233 241 231 228
241 233 227 240 250 272 329 1 49 82 90 81 81 86 98 89 77 98 92 58 73 64 64 53 40 50 55 52 48 46 49 49 46 42 30 16 8 349 305 282 273 269 273 254
254 239 241 214 176 199 186 17 79 77 79 80 73 63 84 98 78 67 87 88 78 63 52 47 48 48 50 49 46 44 41 34 34 35 23 23 23 12 18 11 12 358 0 360
256 225 210 189 195 193 146 121 98 86 87 81 74 65 65 50 74 51 52 61 65 63 54 45 49 51 50 49 45 44 40 35 32 32 29 30 23 23 19 24 23 14 16 24
265 223 225 209 202 175 154 147 127 114 105 88 67 63 62 55 56 60 67 71 68 67 57 45 42 49 48 47 46 43 38 29 22 27 28 28 25 29 26 22 22 22 24 31
261 152 136 46 181 161 160 150 142 126 109 108 95 68 67 62 58 66 74 71 69 65 60 51 44 47 51 48 45 39 34 30 26 22 16 29 28 24 24 27 27 28 32 34